Regional Weather Roundup
Issued by NWS Goodland, KS

Home | Current Version | Previous Version | Graphics & Text | Print | Product List | Glossary On
Versions: 1 2 3 4 5 6 7 8 9 10 11 12 13 14 15 16 17 18 19 20 21 22 23 24 25 26 27 28 29 30 31 32 33 34 35 36 37 38 39 40 41 42 43 44 45 46 47 48 49 50
000
ASUS43 KGLD 010359
RWRGLD

GOODLAND FORECAST AREA HOURLY WEATHER ROUNDUP
NATIONAL WEATHER SERVICE GOODLAND KS
1000 PM MDT TUE JUN 30 2015

...OFFICIAL OBSERVATIONS...

CITY           SKY/WX    TMP DP  RH WIND       PRES   REMARKS
GOODLAND KS    PTCLDY    82  46  28 SW8       29.93S
HILL CITY KS   PTCLDY    87  53  31 SW14      29.84R
IMPERIAL NEB   PTCLDY    78  63  59 CALM      29.88S
MCCOOK NEB     PTCLDY    84  56  38 SE7       29.83S
AKRON CO       MOCLDY    71  57  61 W8        30.04R
BURLINGTON CO  MOCLDY    76  49  38 SW8       29.98S
LIMON CO       MOCLDY    72  57  59 W7        30.10R
$$

...UNOFFICIAL OBSERVATIONS...

CITY           SKY/WX    TMP DP  RH WIND       PRES   REMARKS
COLBY KS       CLEAR     82  55  39 S12       29.91S
GOVE KS          N/A     85  32  15 MISG        N/A
NORTON KS      CLEAR     81  46  30 SE5       29.83S
SHARON SPRINGS   N/A     78  47  33 S8          N/A
KIT CARSON CO    N/A     79  50  36 MISG        N/A
$$


USA.gov is the U.S. government's official web portal to all federal, state and local government web resources and services.